Home   Weather   Summerside   Past weeks

Flag for Canada Past Weather in Summerside, Prince Edward Island, Canada — Yesterday and Last 2 Weeks

Now
46 °F

Cool.


Feels Like: 41 °F
Forecast: 48 / 55 °F
Wind: 9 mph from Northwest

Location: Summerside Airport

Current Time: Sep 25, 2016 at 11:06:49 PM

Latest Report: Sep 25, 2016 at 10:00 PM


Visibility: N/A

Pressure: 29.91 "Hg

Humidity: 87%

Dew Point: 42 °F

Location of SummersideLocation

Past Weather in Summerside — Graph

°F

Summerside Temperature Yesterday

Maximum temperature yesterday: 57 °F (at 2:00 PM)
Minimum temperature yesterday: 42 °F (at 7:00 AM)
Average temperature yesterday: 50 °F

High & Low Weather Summary for the Past Weeks

 TemperatureHumidityPressure
High77 °F (Sep 11, 3:00 PM)100% (Sep 16, 7:00 AM)30.30 "Hg (Sep 16, 7:00 AM)
Low42 °F (Sep 25, 7:00 AM)39% (Sep 21, 3:00 PM)29.65 "Hg (Sep 11, 6:00 PM)
Average60 °F79%30.01 "Hg
* Reported Sep 10 10:00 PM — Sep 25 10:00 PM, Summerside, Weather by CustomWeather, © 2016

Note: Actual official high and low records may vary slightly from our data, if they occured in-between our weather recording intervals... More about our weather records

Advertising

Summerside Weather History for the Previous 24 Hours

Scroll right to see more
 ConditionsComfort  
Time TempWeatherWind HumidityBarometerVisibility
10:00 PM
Sun, Sep 25
46 °FCool.9 mph87%29.91 "HgN/A
9:00 PM46 °FCool.7 mph88%29.90 "HgN/A
8:00 PM45 °FCool.8 mph88%29.88 "HgN/A
7:00 PM46 °FCool.9 mph92%29.88 "HgN/A
6:00 PM48 °FCool.17 mph80%29.85 "HgN/A
5:00 PM53 °FCool.14 mph55%29.83 "HgN/A
4:00 PM54 °FCool.17 mph55%29.83 "HgN/A
3:00 PM51 °FCool.18 mph62%29.83 "HgN/A
2:00 PM52 °FCool.16 mph67%29.83 "HgN/A
1:00 PM51 °FCool.20 mph67%29.83 "HgN/A
12:00 PM51 °FCool.21 mph67%29.82 "HgN/A
11:00 AM52 °FCool.16 mph68%29.81 "HgN/A
10:00 AM50 °FCool.18 mph73%29.81 "HgN/A
7:00 AM42 °FQuite cool.10 mph94%29.81 "HgN/A
6:00 AM43 °FQuite cool.8 mph87%29.80 "HgN/A
5:00 AM42 °FQuite cool.7 mph84%29.80 "HgN/A
4:00 AM45 °FCool.10 mph76%29.80 "HgN/A
3:00 AM46 °FCool.7 mph78%29.81 "HgN/A
2:00 AM46 °FCool.10 mph76%29.82 "HgN/A
1:00 AM47 °FCool.8 mph72%29.83 "HgN/A
12:00 AM47 °FCool.8 mph71%29.85 "HgN/A
11:00 PM
Sat, Sep 24
46 °FCool.9 mph65%29.87 "HgN/A
Weather by CustomWeather, © 2016

See weather overviewHow to use our weather pages